Powrót do katalogu

FENGYUN 1C DEB

AktywnyPO
NORAD 31613·DEBRIS·🇨🇳 China

Wystrzelony May 10, 1999 z Taiyuan Satellite Launch Center

Loading…

Następne Przeloty (najbliższe 24 godziny)

TLE

ŚwieżeSource: Space-Track

Epoka: Sep 13, 2026, 21:02 UTC

1 31613U 99025BZT 26256.87689682  .00000958  00000-0  83037-3 0  9990
2 31613  98.4491  53.1129 0343247  97.3029 266.7259 13.64263192955121

Śledź FENGYUN 1C DEB w czasie rzeczywistym z AllMySat

Download on the App Store